Other Public Products
Issued by NWS Charleston, SC

Current Version | Previous Version | Graphics & Text | Print | Product List | Glossary On
Versions: 1 2 3 4 5 6 7 8 9 10 11 12 13 14 15 16 17 18 19 20 21 22 23 24 25 26 27 28 29 30 31 32 33 34 35 36 37 38 39 40 41 42 43 44 45 46 47 48 49 50
513 FPUS82 KCHS 212112 OPUCHS TEST...KCHS/KSAV Gateway Observations...TEST National Weather Service Charleston SC 400 PM EST TUE NOV 21 2017 NOTE: "fair" indicates few or no clouds below 12,000 feet with no significant weather and/or obstructions to visibility. SCZ050-WAZ558-NCZ071-TXZ119-213-PAZ071-DCZ001-FLZ074-172-MI076- NYZ176-178-MAZ016-IL014-TNZ027-NJZ106-GAZ044-MD014-212200- ...Gateway Observations for Charleston International... CITY SKY/WX TMP DP RH WIND PRES REMARKS Chas Airport CLOUDY 68 58 70 E8 30.03F Seattle LGT RAIN 48 47 96 SE7 29.86F Charlotte CLOUDY 61 47 59 CALM 30.08F Dallas DFW CLOUDY 67 49 52 N12 29.93R Dallas Love PTSUNNY 68 49 50 N12 29.94R Philladelphia MOCLDY 58 34 40 S12 30.04R Wash National MOCLDY 61 42 49 S8 30.03S Baltimore CLOUDY 59 39 47 SW8 30.01F Miami MOSUNNY 81 69 67 E8 29.92S Detroit CLOUDY 49 33 54 SW15 29.81R Newark MOCLDY 56 28 34 S16G24 30.02R Laguardia MOCLDY 57 30 35 S14 30.02S J F K MOCLDY 53 43 68 S17 30.04F Boston Logan PTCLDY 54 35 48 S16G24 30.00R Ft. Lauderdale PTSUNNY 79 70 74 SE9 29.92R Chicago O`Hare CLOUDY 37 19 48 NW23 29.95R WCI 26 Chicago Midway CLOUDY 39 22 50 NW20G25 29.95R WCI 29 Houston Bush CLOUDY 76 62 62 NW3 29.86F Houston Hobby PTSUNNY 75 63 66 CALM 29.86S Nashville PTSUNNY 60 28 29 SW7 30.00F Atlanta PTSUNNY 65 53 65 S5 30.01F $$ GAZ044-118-TXZ119-213-NCZ071-DCZ001-MDZ014-506-PAZ021-071-NJZ106- NYZ176-178-MAZ106-OHZ011-021-055-MIZ076-KYZ091-ILZ014-INZ047- MNZ060-ONZ431-212200- ...Gateway Observations for Savannah International... CITY SKY/WX TMP DP RH WIND PRES REMARKS Savannah Arpt CLOUDY 70 60 70 NE6 30.00S Atlanta PTSUNNY 65 53 65 S5 30.01F Charlotte CLOUDY 61 47 59 CALM 30.08F Dallas DFW CLOUDY 67 49 52 N12 29.93R Houston Bush CLOUDY 76 62 62 NW3 29.86F Wash National MOCLDY 61 42 49 S8 30.03S Wash Dulles CLOUDY 59 40 49 S10 30.01S Baltimore CLOUDY 59 39 47 SW8 30.01F Philadelphia MOCLDY 58 34 40 S12 30.04R Newark MOCLDY 56 28 34 S16G24 30.02R Laguardia MOCLDY 57 30 35 S14 30.02S J F K MOCLDY 53 43 68 S17 30.04F Boston PTCLDY 54 35 48 S16G24 30.00R Pittsburg PTCLDY 56 25 30 SW17 29.89S Akron PTCLDY 51 28 41 SW17G25 29.87R Cleveland CLOUDY 52 32 46 SW16 29.87R Cincinnati PTSUNNY 55 31 39 SW16G22 29.92R Columbus SUNNY 54 30 39 SW17G23 29.91R Detroit CLOUDY 49 33 54 SW15 29.81R Chicago O`Hare CLOUDY 37 19 48 NW23 29.95R WCI 26 Minneapolis MOSUNNY 29 10 45 NW20G28 30.19R WCI 16 Indianapolis CLOUDY 51 34 52 W13 29.93R Toronto Canada MOCLDY 50 34 53 SW17G25 29.73R $$

USA.gov is the U.S. government's official web portal to all federal, state and local government web resources and services.